Lamar, CO

9:07 PM MST on February 18, 2018 (GMT -0700)
Lamar Municipal

Weather History for KLAA - January, 2014

Change the Weather History Date:

Monday, January 20, 2014

  Actual Average Record
Temperature  
Mean Temperature 35 °F 29 °F  
Max Temperature 53 °F 45 °F 75 °F (2018)
Min Temperature 17 °F 13 °F -11 °F (1984)
Degree Days  
Heating Degree Days 30 36  
Month to date heating degree days 687 732  
Since 1 July heating degree days 2862 3045  
Cooling Degree Days 0 0  
Month to date cooling degree days 0 0  
Year to date cooling degree days 0 0  
Moisture  
Dew Point 13 °F    
Average Humidity 45    
Maximum Humidity 68    
Minimum Humidity 21    
Precipitation  
Precipitation 0.00 in 0.01 in 0.74 in (1945)
Month to date precipitation 0.04 0.15  
Year to date precipitation 0.04 0.15  
Sea Level Pressure  
Sea Level Pressure 30.23 in    
Wind  
Wind Speed 10 mph (NW)    
Max Wind Speed 28 mph    
Max Gust Speed 35 mph    
Visibility 10 miles    
Events      
T = Trace of Precipitation, MM = Missing Value Source: NWS Daily Summary

Daily Weather History Graph

Daily Weather History Graph

Search for Another Location

Airport or City:

Trip Planner

Search our weather history database for the weather conditions in past years. The results will help you decide how hot, cold, wet, or windy it might be!

Date:

Astronomy

Jan. 20, 2014 Rise Set
Actual Time 7:03 AM MST 5:00 PM MST
Civil Twilight 6:35 AM MST 5:28 PM MST
Nautical Twilight 6:02 AM MST 6:01 PM MST
Astronomical Twilight 5:31 AM MST 6:32 PM MST
Moon 9:32 PM MST (1/20) 9:08 AM MST (1/20)
Length of Visible Light 10h 53m
Length of Day
9h 56m
Waning Gibbous, 82% of the Moon is Illuminated
Jan 20
Waning Gibbous
Jan 23
Last Quarter
Jan 30
New
Feb 6
First Quarter
Feb 14
Full

Hourly Weather History & Observations

Time (MST) Temp. Windchill Dew Point Humidity Pressure Visibility Wind Dir Wind Speed Gust Speed Precip Events Conditions
12:53 AM 21.0 °F 10.6 °F 10.0 °F 63% 29.92 in 10.0 mi West 9.2 mph - N/A   Clear
1:53 AM 21.0 °F 14.6 °F 10.0 °F 63% 29.93 in 10.0 mi WNW 4.6 mph - N/A   Clear
2:53 AM 21.9 °F 15.7 °F 10.9 °F 63% 29.94 in 10.0 mi SSW 4.6 mph - N/A   Clear
3:53 AM 19.9 °F 12.1 °F 10.0 °F 65% 29.97 in 10.0 mi West 5.8 mph - N/A   Clear
4:53 AM 19.9 °F 7.9 °F 10.0 °F 65% 30.01 in 10.0 mi SSW 11.5 mph - N/A   Clear
5:53 AM 19.9 °F 10.1 °F 9.0 °F 62% 30.10 in 10.0 mi SW 8.1 mph - N/A   Clear
6:53 AM 23.0 °F 11.7 °F 10.0 °F 58% 30.16 in 10.0 mi SSW 11.5 mph - N/A   Clear
7:53 AM 34.0 °F 28.8 °F 10.9 °F 38% 30.17 in 10.0 mi NW 5.8 mph - N/A   Clear
8:53 AM 44.1 °F 35.2 °F 15.1 °F 31% 30.19 in 10.0 mi North 23.0 mph 29.9 mph N/A   Clear
9:53 AM 46.9 °F - 17.1 °F 30% 30.24 in 10.0 mi North 23.0 mph 32.2 mph N/A   Clear
10:34 AM 50.0 °F - 16.0 °F 26% 30.25 in 6.0 mi NNE 21.9 mph 29.9 mph N/A   Haze
10:53 AM 50.0 °F - 12.9 °F 23% 30.27 in 6.0 mi NNE 25.3 mph 33.4 mph N/A   Haze
11:05 AM 48.9 °F - 12.0 °F 23% 30.26 in 8.0 mi NNE 23.0 mph 35.7 mph N/A   Scattered Clouds
11:53 AM 50.0 °F - 15.1 °F 25% 30.27 in 10.0 mi North 19.6 mph - N/A   Clear
12:53 PM 52.0 °F - 16.0 °F 24% 30.27 in 10.0 mi North 16.1 mph 24.2 mph N/A   Clear
1:53 PM 53.1 °F - 16.0 °F 23% 30.26 in 10.0 mi North 13.8 mph - N/A   Clear
2:53 PM 53.1 °F - 15.1 °F 22% 30.27 in 10.0 mi North 20.7 mph 27.6 mph N/A   Clear
3:53 PM 52.0 °F - 15.1 °F 23% 30.31 in 10.0 mi North 16.1 mph - N/A   Clear
4:53 PM 45.0 °F 40.6 °F 14.0 °F 29% 30.36 in 10.0 mi North 8.1 mph - N/A   Clear
5:53 PM 39.0 °F 34.8 °F 14.0 °F 36% 30.39 in 10.0 mi NNE 5.8 mph - N/A   Clear
6:53 PM 34.0 °F - 12.9 °F 42% 30.41 in 10.0 mi Calm Calm - N/A   Clear
7:53 PM 25.0 °F 18.1 °F 10.9 °F 55% 30.42 in 10.0 mi SSW 5.8 mph - N/A   Clear
8:53 PM 30.9 °F - 14.0 °F 50% 30.40 in 10.0 mi Calm Calm - N/A   Clear
9:53 PM 19.9 °F 14.9 °F 10.0 °F 65% 30.43 in 10.0 mi SW 3.5 mph - N/A   Clear
10:53 PM 21.0 °F - 12.0 °F 68% 30.43 in 10.0 mi Calm Calm - N/A   Clear
11:53 PM 24.1 °F 18.2 °F 12.9 °F 62% 30.41 in 10.0 mi WSW 4.6 mph - N/A   Clear